Zurück zum Katalog

NOAA 16 DEB

AktivSSO
NORAD 41498·DEBRIS·🇺🇸 United States

Gestartet Sep 21, 2000 von Vandenberg Space Force Base

Loading…

Nächste Überflüge (nächste 24 Stunden)

TLE

AktuellSource: Space-Track

Epoche: Sep 13, 2026, 21:03 UTC

1 41498U 00055LW  26256.87740147  .00000441  00000-0  20395-3 0  9996
2 41498  99.0044  44.8491 0020792  52.6064 307.7004 14.25972325544450

Verfolge NOAA 16 DEB in Echtzeit mit AllMySat

Download on the App Store